BKB1 CYKA-CYQU

Flight info

Callsign BKB1
Flight time 0h 58m
Altitude 30000
Route KEBRA DCT IKBIR
Aircraft RJ1H/M-SDFGIRWY/LB1

Departure

Time 2026-04-27 09:10
Airport Kamloops John Moose Fulton Field Regional Airport (CYKA)

Arrival

Time 2026-04-27 10:08
Airport Grande Prairie Airport (CYQU)
Time Latitude Longitude Altitude Speed Heading
2026-04-27 08:47 50.70501 -120.44045 1134 ft 0 kts 18°
2026-04-27 09:04 50.70503 -120.44044 1134 ft 0 kts 23°
2026-04-27 09:04 50.70506 -120.44035 1138 ft 2 kts 75°
2026-04-27 09:04 50.70493 -120.44023 1139 ft 4 kts 181°
2026-04-27 09:05 50.70451 -120.44043 1136 ft 8 kts 217°
2026-04-27 09:05 50.70411 -120.44137 1134 ft 12 kts 240°
2026-04-27 09:05 50.70365 -120.44269 1136 ft 14 kts 241°
2026-04-27 09:05 50.70314 -120.44372 1135 ft 11 kts 199°
2026-04-27 09:06 50.70252 -120.44414 1137 ft 9 kts 237°
2026-04-27 09:06 50.70249 -120.44487 1134 ft 12 kts 281°
2026-04-27 09:06 50.70272 -120.44639 1136 ft 16 kts 283°
2026-04-27 09:06 50.70300 -120.44828 1138 ft 19 kts 283°
2026-04-27 09:07 50.70333 -120.45047 1136 ft 22 kts 283°
2026-04-27 09:07 50.70368 -120.45291 1139 ft 24 kts 283°
2026-04-27 09:07 50.70409 -120.45565 1138 ft 27 kts 283°
2026-04-27 09:07 50.70452 -120.45850 1138 ft 26 kts 283°
2026-04-27 09:08 50.70493 -120.46113 1134 ft 24 kts 292°
2026-04-27 09:08 50.70610 -120.46266 1136 ft 20 kts 331°
2026-04-27 09:08 50.70698 -120.46407 1138 ft 16 kts 278°
2026-04-27 09:08 50.70630 -120.46499 1135 ft 14 kts 193°
2026-04-27 09:09 50.70553 -120.46517 1134 ft 5 kts 148°
2026-04-27 09:09 50.70532 -120.46396 1132 ft 35 kts 103°
2026-04-27 09:09 50.70422 -120.45643 1138 ft 103 kts 103°
2026-04-27 09:09 50.70214 -120.44253 1158 ft 153 kts 102°
2026-04-27 09:10 50.69957 -120.42573 1639 ft 161 kts 103°
2026-04-27 09:10 50.69671 -120.40841 2306 ft 160 kts 104°
2026-04-27 09:10 50.69404 -120.39159 2929 ft 158 kts 103°
2026-04-27 09:10 50.69152 -120.37434 3183 ft 165 kts 101°
2026-04-27 09:11 50.68891 -120.35641 3404 ft 175 kts 101°
2026-04-27 09:11 50.68617 -120.33677 3497 ft 187 kts 101°
2026-04-27 09:11 50.68353 -120.31671 3803 ft 188 kts 103°
2026-04-27 09:11 50.68047 -120.29579 4077 ft 208 kts 103°
2026-04-27 09:12 50.67690 -120.27266 4395 ft 224 kts 102°
2026-04-27 09:12 50.67317 -120.24820 4850 ft 235 kts 102°
2026-04-27 09:12 50.66929 -120.22265 5324 ft 245 kts 102°
2026-04-27 09:12 50.66517 -120.19598 5818 ft 255 kts 102°
2026-04-27 09:13 50.66090 -120.16830 6360 ft 262 kts 102°
2026-04-27 09:13 50.65666 -120.14017 7011 ft 265 kts 102°
2026-04-27 09:13 50.65243 -120.11175 7695 ft 268 kts 101°
2026-04-27 09:13 50.64814 -120.08299 8413 ft 271 kts 101°
2026-04-27 09:14 50.64379 -120.05390 9161 ft 275 kts 101°
2026-04-27 09:14 50.63928 -120.02436 9916 ft 278 kts 102°
2026-04-27 09:14 50.63457 -119.99455 10630 ft 283 kts 101°
2026-04-27 09:14 50.63064 -119.96448 11311 ft 285 kts 89°
2026-04-27 09:15 50.63491 -119.93484 11995 ft 277 kts 55°
2026-04-27 09:15 50.64822 -119.91403 12718 ft 269 kts 24°
2026-04-27 09:15 50.66584 -119.90505 13428 ft 266 kts 10°
2026-04-27 09:15 50.68404 -119.89916 14059 ft 269 kts
2026-04-27 09:16 50.70297 -119.89413 14298 ft 283 kts
2026-04-27 09:16 50.72281 -119.88961 14613 ft 291 kts
2026-04-27 09:16 50.74294 -119.88536 15109 ft 291 kts
2026-04-27 09:16 50.76308 -119.88100 15598 ft 292 kts
2026-04-27 09:17 50.78325 -119.87639 16057 ft 295 kts
2026-04-27 09:17 50.80363 -119.87160 16469 ft 297 kts
2026-04-27 09:17 50.82404 -119.86650 16923 ft 297 kts
2026-04-27 09:17 50.84444 -119.86125 17400 ft 296 kts
2026-04-27 09:18 50.86484 -119.85602 17812 ft 297 kts
2026-04-27 09:18 50.88532 -119.85077 18193 ft 299 kts
2026-04-27 09:18 50.90586 -119.84557 18492 ft 300 kts
2026-04-27 09:18 50.92651 -119.84033 18786 ft 301 kts
2026-04-27 09:19 50.94727 -119.83506 19089 ft 303 kts
2026-04-27 09:19 50.96780 -119.82963 19377 ft 304 kts
2026-04-27 09:19 50.98882 -119.82422 19685 ft 306 kts
2026-04-27 09:19 51.00986 -119.81855 19958 ft 307 kts
2026-04-27 09:20 51.03099 -119.81303 20252 ft 309 kts
2026-04-27 09:20 51.05228 -119.80755 20534 ft 310 kts
2026-04-27 09:20 51.07364 -119.80193 20841 ft 312 kts
2026-04-27 09:20 51.09510 -119.79635 21142 ft 313 kts
2026-04-27 09:21 51.11664 -119.79077 21402 ft 314 kts
2026-04-27 09:21 51.13824 -119.78519 21693 ft 315 kts
2026-04-27 09:21 51.15996 -119.77951 21953 ft 317 kts
2026-04-27 09:21 51.18193 -119.77384 22155 ft 322 kts
2026-04-27 09:22 51.20406 -119.76810 22447 ft 322 kts
2026-04-27 09:22 51.22621 -119.76214 22700 ft 323 kts 10°
2026-04-27 09:22 51.24844 -119.75629 22954 ft 325 kts 10°
2026-04-27 09:22 51.27076 -119.75032 23249 ft 326 kts 10°
2026-04-27 09:23 51.29290 -119.74453 23528 ft 327 kts 10°
2026-04-27 09:23 51.31538 -119.73853 23765 ft 328 kts 10°
2026-04-27 09:23 51.33795 -119.73268 23968 ft 329 kts
2026-04-27 09:23 51.36060 -119.72681 24181 ft 331 kts 10°
2026-04-27 09:24 51.38334 -119.72087 24390 ft 331 kts
2026-04-27 09:24 51.40604 -119.71499 24659 ft 329 kts 10°
2026-04-27 09:24 51.42856 -119.70894 25001 ft 327 kts 10°
2026-04-27 09:24 51.45094 -119.70289 25259 ft 326 kts 10°
2026-04-27 09:25 51.47329 -119.69700 25513 ft 325 kts 10°
2026-04-27 09:25 51.49554 -119.69105 25803 ft 323 kts 10°
2026-04-27 09:25 51.51769 -119.68523 26059 ft 322 kts
2026-04-27 09:25 51.53980 -119.67942 26342 ft 321 kts 10°
2026-04-27 09:26 51.56183 -119.67352 26630 ft 320 kts 10°
2026-04-27 09:26 51.58379 -119.66768 26890 ft 319 kts 10°
2026-04-27 09:26 51.60568 -119.66192 27148 ft 318 kts 10°
2026-04-27 09:26 51.62746 -119.65612 27375 ft 317 kts
2026-04-27 09:27 51.64923 -119.65041 27605 ft 316 kts 10°
2026-04-27 09:27 51.67091 -119.64454 27857 ft 315 kts 10°
2026-04-27 09:27 51.69252 -119.63877 28038 ft 314 kts 11°
2026-04-27 09:27 51.71366 -119.63312 28358 ft 310 kts 10°
2026-04-27 09:28 51.73490 -119.62740 28578 ft 309 kts 10°
2026-04-27 09:28 51.75605 -119.62168 28807 ft 308 kts 10°
2026-04-27 09:28 51.77716 -119.61595 29025 ft 307 kts 10°
2026-04-27 09:28 51.79818 -119.61022 29244 ft 306 kts 10°
2026-04-27 09:29 51.81917 -119.60453 29481 ft 305 kts 10°
2026-04-27 09:29 51.84007 -119.59891 29705 ft 304 kts 10°
2026-04-27 09:29 51.86089 -119.59340 29905 ft 301 kts 10°
2026-04-27 09:30 51.90259 -119.58227 29967 ft 308 kts 10°
2026-04-27 09:30 51.94543 -119.57087 29985 ft 316 kts
2026-04-27 09:31 51.98955 -119.55926 29960 ft 325 kts 10°
2026-04-27 09:31 52.03432 -119.54702 29992 ft 332 kts 10°
2026-04-27 09:32 52.08047 -119.53438 29978 ft 339 kts 10°
2026-04-27 09:32 52.12738 -119.52162 29965 ft 343 kts 10°
2026-04-27 09:33 52.17459 -119.50886 29983 ft 345 kts 10°
2026-04-27 09:33 52.22204 -119.49585 30005 ft 346 kts 11°
2026-04-27 09:34 52.26963 -119.48294 30005 ft 347 kts 10°
2026-04-27 09:34 52.31705 -119.46999 30011 ft 348 kts 10°
2026-04-27 09:35 52.36538 -119.45713 29983 ft 354 kts
2026-04-27 09:35 52.41417 -119.44341 30027 ft 357 kts 10°
2026-04-27 09:36 52.46308 -119.43030 30045 ft 358 kts 10°
2026-04-27 09:36 52.51224 -119.41657 30027 ft 358 kts 10°
2026-04-27 09:37 52.56147 -119.40305 30026 ft 358 kts 10°
2026-04-27 09:37 52.61026 -119.38936 30001 ft 352 kts 10°
2026-04-27 09:38 52.65861 -119.37570 30012 ft 352 kts 11°
2026-04-27 09:38 52.70671 -119.36227 30040 ft 353 kts 10°
2026-04-27 09:39 52.75542 -119.34864 30057 ft 358 kts 10°
2026-04-27 09:39 52.80470 -119.33487 30048 ft 360 kts 10°
2026-04-27 09:40 52.85418 -119.32107 30058 ft 361 kts 10°
2026-04-27 09:40 52.90341 -119.30715 30030 ft 355 kts 10°
2026-04-27 09:41 52.95209 -119.29334 30074 ft 355 kts 10°
2026-04-27 09:41 53.00060 -119.27965 30086 ft 356 kts 11°
2026-04-27 09:42 53.04935 -119.26579 30037 ft 355 kts 10°
2026-04-27 09:42 53.09797 -119.25197 30087 ft 354 kts 11°
2026-04-27 09:43 53.14675 -119.23835 30080 ft 358 kts 10°
2026-04-27 09:43 53.19613 -119.22435 30074 ft 360 kts 10°
2026-04-27 09:44 53.24534 -119.21011 30114 ft 358 kts 10°
2026-04-27 09:44 53.29423 -119.19618 30107 ft 359 kts 10°
2026-04-27 09:45 53.34350 -119.18232 30123 ft 359 kts 10°
2026-04-27 09:45 53.39268 -119.16778 30138 ft 359 kts 11°
2026-04-27 09:46 53.44193 -119.15346 30120 ft 358 kts 11°
2026-04-27 09:46 53.49106 -119.13938 30098 ft 355 kts 10°
2026-04-27 09:47 53.53947 -119.12551 30172 ft 355 kts 11°
2026-04-27 09:47 53.58863 -119.11118 30170 ft 361 kts 11°
2026-04-27 09:48 53.63803 -119.09677 30177 ft 363 kts 11°
2026-04-27 09:48 53.68778 -119.08201 30179 ft 363 kts 11°
2026-04-27 09:49 53.73754 -119.06757 30181 ft 362 kts 10°
2026-04-27 09:49 53.78732 -119.05308 30186 ft 362 kts 11°
2026-04-27 09:50 53.83628 -119.03874 30176 ft 354 kts 11°
2026-04-27 09:50 53.88448 -119.02453 30173 ft 354 kts 11°
2026-04-27 09:51 53.93306 -119.01017 30206 ft 354 kts 11°
2026-04-27 09:51 53.95732 -119.00301 29146 ft 359 kts 11°
2026-04-27 09:51 53.98221 -118.99564 28169 ft 365 kts 11°
2026-04-27 09:51 54.00704 -118.98829 27629 ft 359 kts 11°
2026-04-27 09:52 54.03155 -118.98104 27004 ft 356 kts 11°
2026-04-27 09:52 54.05588 -118.97386 26405 ft 354 kts 11°
2026-04-27 09:52 54.08008 -118.96675 25812 ft 351 kts 11°
2026-04-27 09:52 54.10409 -118.95966 25192 ft 349 kts 10°
2026-04-27 09:53 54.12802 -118.95254 24581 ft 349 kts 11°
2026-04-27 09:53 54.15191 -118.94538 24006 ft 348 kts 11°
2026-04-27 09:53 54.17540 -118.93829 23398 ft 347 kts 11°
2026-04-27 09:53 54.19906 -118.93115 22808 ft 343 kts 11°
2026-04-27 09:54 54.22251 -118.92409 22250 ft 341 kts 11°
2026-04-27 09:54 54.24580 -118.91712 21690 ft 338 kts 11°
2026-04-27 09:54 54.26893 -118.91019 21139 ft 335 kts 11°
2026-04-27 09:54 54.28414 -118.90566 20786 ft 334 kts 11°
2026-04-27 09:55 54.30700 -118.89887 20263 ft 332 kts 11°
2026-04-27 09:55 54.33700 -118.89000 19541 ft 329 kts 11°
2026-04-27 09:55 54.38163 -118.87646 18520 ft 324 kts 11°
2026-04-27 09:56 54.39660 -118.87194 18129 ft 322 kts 11°
2026-04-27 09:56 54.41860 -118.86533 17550 ft 319 kts 11°
2026-04-27 09:56 54.44016 -118.85881 17008 ft 317 kts 11°
2026-04-27 09:56 54.46176 -118.85234 16487 ft 313 kts 11°
2026-04-27 09:57 54.48312 -118.84566 15974 ft 310 kts 12°
2026-04-27 09:57 54.50428 -118.83905 15481 ft 308 kts 12°
2026-04-27 09:57 54.52528 -118.83265 14983 ft 305 kts 11°
2026-04-27 09:57 54.54612 -118.82626 14522 ft 302 kts 12°
2026-04-27 09:58 54.56676 -118.81990 14051 ft 300 kts 12°
2026-04-27 09:58 54.58724 -118.81355 13505 ft 299 kts 12°
2026-04-27 09:58 54.60767 -118.80724 12955 ft 298 kts 12°
2026-04-27 09:58 54.62804 -118.80119 12413 ft 297 kts 11°
2026-04-27 09:59 54.64838 -118.79503 11881 ft 296 kts 12°
2026-04-27 09:59 54.66834 -118.78888 11380 ft 295 kts 12°
2026-04-27 09:59 54.68837 -118.78265 11072 ft 288 kts 12°
2026-04-27 09:59 54.70788 -118.77663 10806 ft 281 kts 12°
2026-04-27 10:00 54.72690 -118.77085 10549 ft 275 kts 12°
2026-04-27 10:00 54.74557 -118.76508 10288 ft 270 kts 12°
2026-04-27 10:00 54.76389 -118.75942 10030 ft 265 kts 12°
2026-04-27 10:00 54.78175 -118.75404 9844 ft 257 kts 11°
2026-04-27 10:01 54.79941 -118.74868 9461 ft 258 kts 11°
2026-04-27 10:01 54.81713 -118.74342 9051 ft 258 kts 11°
2026-04-27 10:01 54.83465 -118.73820 8645 ft 253 kts 11°
2026-04-27 10:01 54.85183 -118.73303 8240 ft 248 kts 11°
2026-04-27 10:02 54.86874 -118.72785 7834 ft 245 kts 11°
2026-04-27 10:02 54.88539 -118.72260 7457 ft 243 kts 11°
2026-04-27 10:02 54.90211 -118.71724 7125 ft 244 kts 11°
2026-04-27 10:02 54.91878 -118.71185 6821 ft 244 kts 10°
2026-04-27 10:03 54.93545 -118.70662 6500 ft 243 kts 10°
2026-04-27 10:03 54.95213 -118.70137 6177 ft 243 kts 10°
2026-04-27 10:03 54.96878 -118.69615 5846 ft 243 kts 10°
2026-04-27 10:03 54.98549 -118.69160 5524 ft 243 kts
2026-04-27 10:04 55.00231 -118.68804 5199 ft 244 kts
2026-04-27 10:04 55.01916 -118.68606 4917 ft 242 kts 356°
2026-04-27 10:04 55.03557 -118.68949 4650 ft 240 kts 352°
2026-04-27 10:04 55.05212 -118.69426 4427 ft 236 kts 349°
2026-04-27 10:05 55.06780 -118.70094 4225 ft 233 kts 346°
2026-04-27 10:05 55.08269 -118.71159 3972 ft 232 kts 323°
2026-04-27 10:05 55.09296 -118.73289 3808 ft 227 kts 309°
2026-04-27 10:05 55.10336 -118.75260 3772 ft 216 kts 319°
2026-04-27 10:06 55.11377 -118.77073 3758 ft 206 kts 316°
2026-04-27 10:06 55.12333 -118.78811 3811 ft 189 kts 316°
2026-04-27 10:06 55.13228 -118.80374 3553 ft 176 kts 317°
2026-04-27 10:06 55.14063 -118.81829 3233 ft 163 kts 319°
2026-04-27 10:07 55.14831 -118.83160 2968 ft 149 kts 319°
2026-04-27 10:07 55.15528 -118.84367 2763 ft 136 kts 319°
2026-04-27 10:07 55.16173 -118.85497 2551 ft 126 kts 320°
2026-04-27 10:07 55.16782 -118.86567 2391 ft 122 kts 321°
2026-04-27 10:08 55.17380 -118.87594 2241 ft 117 kts 319°
2026-04-27 10:08 55.17922 -118.88550 2202 ft 100 kts 318°
2026-04-27 10:08 55.18330 -118.89250 2200 ft 64 kts 315°
2026-04-27 10:08 55.18547 -118.89630 2200 ft 23 kts 315°
2026-04-27 10:09 55.18621 -118.89740 2200 ft 5 kts 309°
2026-04-27 10:09 55.18604 -118.89754 2200 ft 6 kts 120°
2026-04-27 10:09 55.18561 -118.89665 2200 ft 13 kts 135°
2026-04-27 10:09 55.18483 -118.89528 2200 ft 19 kts 134°
2026-04-27 10:10 55.18377 -118.89340 2200 ft 25 kts 136°
2026-04-27 10:10 55.18242 -118.89105 2200 ft 29 kts 135°
2026-04-27 10:10 55.18102 -118.88859 2200 ft 28 kts 135°
2026-04-27 10:10 55.17968 -118.88623 2200 ft 27 kts 135°
2026-04-27 10:11 55.17837 -118.88393 2200 ft 27 kts 135°
2026-04-27 10:11 55.17703 -118.88156 2200 ft 28 kts 135°
2026-04-27 10:11 55.17563 -118.87910 2200 ft 28 kts 135°
2026-04-27 10:11 55.17431 -118.87681 2200 ft 22 kts 135°
2026-04-27 10:12 55.17422 -118.87498 2200 ft 16 kts 44°
2026-04-27 10:12 55.17504 -118.87389 2200 ft 14 kts
2026-04-27 10:12 55.17569 -118.87490 2200 ft 12 kts 313°
2026-04-27 10:12 55.17622 -118.87586 2200 ft 8 kts 319°
2026-04-27 10:13 55.17656 -118.87556 2200 ft 5 kts 44°
2026-04-27 10:13 55.17673 -118.87526 2200 ft 0 kts 44°